Regional Weather Roundup
Issued by NWS Sterling, VA

Home | Current Version | Previous Version | Graphics & Text | Print | Product List | Glossary On
Versions: 1 2 3 4 5 6 7 8 9 10 11 12 13 14 15 16 17 18 19 20 21 22 23 24 25 26 27 28 29 30 31 32 33 34 35 36 37 38 39 40 41 42 43 44 45 46 47 48 49 50
000
ASUS41 KLWX 270310
RWRLWX

REGIONAL WEATHER ROUNDUP
NATIONAL WEATHER SERVICE BALTIMORE MD/WASHINGTON DC
1100 PM EDT FRI AUG 26 2016

Note: "FAIR" indicates few or no clouds below 12,000 feet
with no significant weather and/or obstructions to visibility.
 TC=TEMPERATURE CELSIUS

 * =Non NWS site. Station does not report precipitation (e.g. rain,
    snow, etc.), thunder, or fog.

DCZ001-MDZ009-015-VAZ040>042-051-053>054-270400-
WASHINGTON METRO

CITY           SKY/WX    TMP DP  RH WIND       PRES   REMARKS
WASHINGTON NAT PTCLDY    84  74  71 SE3       30.09R HX  91
DULLES         PTCLDY    82  71  69 N6        30.10R
ANDREWS AFB    CLEAR     76  71  86 CALM      30.08R
FT BELVOIR     CLEAR     76  73  92 CALM      30.08R
QUANTICO       CLEAR     80  77  90 NW6       30.08
COLLEGE PARK*  CLEAR     77  72  83 CALM      30.08R
LEESBURG*      CLEAR     81  73  78 N3        30.11R
MANASSAS*      CLEAR     79  79 100 CALM      30.09R
GAITHERSBURG*  CLEAR     75  70  83 CALM      30.15R

$$

MDZ006>007-011-014-270400-
BALTIMORE METRO

CITY           SKY/WX    TMP DP  RH WIND       PRES   REMARKS
BWI AIRPORT    PTCLDY    77  72  84 CALM      30.08R
MD SCIENCE CTR   N/A     86  69  56 MISG      30.08R HX  90
MARTIN STATE   CLEAR     79  75  89 CALM      30.09R
ANNAPOLIS      CLEAR     81  76  84 N3        30.07R
FORT MEADE*    CLEAR    N/A N/A N/A CALM      30.11R

$$

MDZ012-015-019>023-270400-
MARYLAND EASTERN SHORE

CITY           SKY/WX    TMP DP  RH WIND       PRES   REMARKS
OCEAN CITY     CLEAR     76  73  91 CALM      30.06S
SALISBURY      CLEAR     76  73  91 CALM      30.06S
BAY BRIDGE AP* CLEAR     79  73  83 CALM      30.07R
CAMBRIDGE*     CLEAR     75  73  94 CALM      30.06S
EASTON*        CLEAR     78  77  98 CALM      30.11R

$$

MDZ017>025-270400-
SOUTHERN MARYLAND

CITY           SKY/WX    TMP DP  RH WIND       PRES   REMARKS
PATUXENT RIVER CLEAR     76  72  87 W5        30.06R
ST INIGOES     CLEAR     77  75  93 CALM      30.06R
LEONARDTOWN*   CLEAR     77  72  83 CALM      30.09R

$$

MDZ003>005-270400-
NORTH CENTRAL MARYLAND

CITY           SKY/WX    TMP DP  RH WIND       PRES   REMARKS
FREDERICK*     CLEAR     73  73 100 CALM      30.13R
HAGERSTOWN APT CLEAR     79  63  57 CALM      30.12R

$$

MDZ501>502-270400-
WESTERN MARYLAND

CITY           SKY/WX    TMP DP  RH WIND       PRES   REMARKS
OAKLAND*       CLEAR     70  64  83 CALM      30.28R
CUMBERLAND*    CLEAR     75  70  83 NE6       30.18R

$$

VAZ025>031-270400-
SHENANDOAH VALLEY

CITY           SKY/WX    TMP DP  RH WIND       PRES   REMARKS
WINCHESTER*    PTCLDY    77  68  73 CALM      30.13R
FRONT ROYAL*   FAIR      75  73  94 CALM      30.12R
LURAY*         FAIR      75  75 100 CALM      30.14R
NEW MARKET*    FAIR     N/A N/A N/A CALM      30.14R
STAUNTON*      CLEAR     73  70  90 CALM      30.18S
WAYNESBORO*    FAIR      74  71  91 SW3       30.17S

$$

WVZ021-048>050-054>055-270400-
EASTERN WEST VIRGINIA PANHANDLE

CITY           SKY/WX    TMP DP  RH WIND       PRES   REMARKS
MARTINSBURG    CLEAR     75  67  76 CALM      30.12R
PETERSBURG*    CLEAR     73  71  91 CALM      30.16R

$$

VAZ036>039-050-270400-
CENTRAL FOOTHILLS

CITY           SKY/WX    TMP DP  RH WIND       PRES   REMARKS
CHARLOTTESVILL CLEAR     77  73  87 CALM      30.11R
CULPEPER*      PTCLDY    79  78  97 CALM      30.10R
ORANGE*          N/A     77  77 100 CALM      30.11S
GORDONSVILLE*  NOT AVBL
WARRENTON*     MOCLDY    78  72  81 CALM      30.09S

$$

VAZ055>057-270400-
NORTH AND CENTRAL PIEDMONT

CITY           SKY/WX    TMP DP  RH WIND       PRES   REMARKS
FREDERICKSBRG* PTCLDY    82  77  85 CALM      30.07R
STAFFORD*      CLOUDY    78  75  89 CALM      30.12R

$$

NCZ024-NYZ072-PAZ021-071-VAZ022-071-270400-
OTHER REGIONAL OBSERVATIONS

CITY           SKY/WX    TMP DP  RH WIND       PRES   REMARKS
NEW YORK CITY    N/A     81  63  54 MISG        N/A
PHILADELPHIA   CLEAR     82  65  56 N7        30.07R
PITTSBURGH     PTCLDY    74  61  63 CALM      30.17R
ROANOKE        CLEAR     78  73  84 W3        30.16R
RICHMOND       PTCLDY    81  74  79 E6        30.07R
RALEIGH        PTCLDY    81  74  79 CALM      30.09R

$$

ANZ530>537-270400-
MARINE OBSERVATIONS

STATION/POSITION TIME  TEMP    WIND        PRES
                       AIR SEA DIR/SP/G
                 (UTC) (F)     (DEG/KT/KT) (MB)
THOMAS PT LIGHT  0300   83 83  340/  3/  3 1019.7R
BALT KEY BRIDGE  0248   84     360/  2/  3 1018.4R
COVE POINT       0248   85      10/  2/  3 1018.6R
LEWISETTA        0248   83 85  260/  1/  2 1017.7R
SOLOMONS ISLAND  0242   82 85  310/  1/  3   N/A
PINEY POINT      0248             CALM       N/A

$$




USA.gov is the U.S. government's official web portal to all federal, state and local government web resources and services.